Total_Precipitation_Accumulation
2.47 3.21 3.89 4.37 4.98 5.73 6.28 6.18 5.58 5.14 4.69 4.27 3.82 3.88 3.80 3.56 3.32 3.11 2.91 2.90 2.84 2.71 2.79 2.52 2.70 2.36 2.43 2.58 2.73 3.08 3.29 3.26 3.23 3.52 3.55 3.08 2.61 2.60 2.55 2.45 2.72 2.74 2.72
2.51 3.29 3.87 3.99 3.97 4.23 4.45 3.95 3.78 3.81 3.52 3.38 3.41 3.39 3.29 3.00 2.85 2.88 3.11 2.79 2.80 2.69 2.50 2.67 2.48 2.43 2.67 2.71 2.85 3.12 3.25 3.22 3.28 3.48 3.82 3.55 3.45 2.89 2.17 2.39 2.54 2.65 2.89
2.58 3.09 3.24 3.22 3.06 3.00 2.98 2.76 2.73 3.07 3.11 3.20 3.29 3.31 3.31 3.14 2.98 2.84 3.01 2.73 2.55 2.51 2.57 2.51 2.58 2.75 2.45 2.72 2.93 2.97 3.22 3.33 3.21 3.18 3.62 3.62 3.54 3.02 2.38 2.24 2.30 2.52 2.83
2.53 2.57 2.13 1.94 2.03 2.10 2.22 2.48 2.58 2.75 2.72 2.90 2.88 2.81 2.61 2.52 2.47 2.47 2.65 2.75 2.50 2.37 2.39 2.52 2.85 2.99 2.73 2.96 2.52 2.71 3.06 3.28 3.21 3.23 3.02 2.88 2.95 3.14 3.01 2.56 2.30 2.42 2.53
1.57 1.50 1.38 1.37 1.55 1.81 2.04 2.38 2.50 2.55 2.49 2.50 2.64 2.85 2.78 2.80 2.70 2.66 2.94 2.98 3.01 2.79 2.47 2.47 2.76 2.95 2.96 3.06 2.90 3.11 2.91 2.85 2.87 2.98 2.99 2.93 2.78 2.57 2.78 2.82 2.64 2.49 2.19
0.95 1.04 1.15 1.36 1.61 1.75 1.84 2.06 2.21 2.41 2.45 2.50 2.61 2.66 2.73 2.92 2.92 2.91 2.80 2.67 2.80 2.79 2.53 2.51 2.85 2.89 2.93 3.11 2.99 2.96 2.83 2.85 2.87 2.77 2.68 2.95 2.92 2.72 2.81 2.57 2.54 2.47 1.99
0.83 1.01 1.15 1.37 1.46 1.52 1.53 1.70 1.78 2.00 2.20 2.30 2.38 2.46 2.61 2.76 2.76 2.86 2.82 2.70 2.49 2.37 2.48 2.63 2.97 2.93 2.92 2.90 2.97 2.89 2.90 3.00 3.03 2.89 2.71 2.71 2.73 2.76 2.75 2.70 2.36 2.23 1.98
0.76 0.87 1.04 1.11 1.16 1.32 1.52 1.70 1.68 1.68 1.73 1.84 2.07 2.22 2.25 2.38 2.44 2.78 2.68 2.65 2.50 2.34 2.45 2.61 2.59 2.58 2.67 2.57 2.87 2.69 2.67 2.82 2.87 2.71 3.05 2.94 2.57 2.70 2.74 2.88 3.07 2.82 2.49
0.83 0.83 0.85 1.04 1.10 1.01 1.10 1.33 1.45 1.54 1.59 1.65 1.86 1.89 1.88 1.99 2.23 2.31 2.19 2.06 2.16 2.28 2.40 2.43 2.51 2.54 2.54 2.58 2.81 2.71 2.74 2.93 2.76 2.74 3.15 2.95 2.58 2.56 2.64 2.86 3.18 3.44 3.02
0.79 0.85 0.85 0.92 0.96 0.93 1.09 1.23 1.34 1.46 1.52 1.54 1.62 1.50 1.62 1.73 1.95 2.05 2.05 1.96 1.92 2.11 2.27 2.33 2.43 2.50 2.47 2.56 2.73 2.58 2.76 2.85 2.76 2.77 2.87 2.80 2.57 2.60 2.69 2.88 3.11 3.38 3.31
0.68 0.80 0.80 0.88 0.89 0.85 0.96 1.14 1.35 1.44 1.33 1.36 1.40 1.50 1.62 1.80 1.89 1.87 1.92 1.94 1.96 2.10 2.22 2.32 2.40 2.41 2.45 2.60 2.69 2.53 2.68 2.69 2.80 2.73 2.69 2.65 2.85 2.90 2.74 2.91 3.02 3.25 3.48
0.75 0.84 0.83 0.84 0.82 0.80 0.87 1.00 1.20 1.35 1.39 1.40 1.49 1.63 1.72 1.83 1.91 1.82 1.91 2.13 2.16 2.19 2.27 2.38 2.47 2.37 2.46 2.61 2.56 2.55 2.61 2.67 2.66 2.76 2.95 2.88 3.05 3.06 3.01 3.20 3.19 3.27 3.51
0.75 0.79 0.90 0.83 0.78 0.82 0.88 1.00 1.28 1.48 1.68 1.76 1.73 1.76 1.75 1.83 1.97 2.02 2.06 2.18 2.27 2.33 2.31 2.29 2.36 2.50 2.66 2.70 2.54 2.53 2.53 2.45 2.37 2.54 2.81 3.11 3.56 3.41 3.24 3.13 3.05 3.08 3.15
0.70 0.81 0.93 1.00 1.07 1.09 1.10 1.23 1.40 1.48 1.64 1.68 1.69 1.80 1.87 2.01 2.15 2.24 2.29 2.32 2.32 2.33 2.39 2.46 2.48 2.56 2.59 2.55 2.54 2.58 2.58 2.54 2.40 2.41 2.52 2.70 2.99 3.15 3.29 3.09 2.99 3.06 3.14
0.86 0.91 1.04 1.17 1.26 1.34 1.32 1.30 1.38 1.42 1.59 1.96 2.14 2.29 2.31 2.33 2.45 2.52 2.50 2.54 2.50 2.42 2.61 2.65 2.60 2.59 2.55 2.37 2.55 2.68 2.57 2.66 2.57 2.49 2.43 2.27 2.41 2.60 2.80 2.67 2.98 3.17 3.10
1.06 1.17 1.22 1.31 1.35 1.42 1.50 1.53 1.56 1.65 1.85 2.29 2.62 2.75 2.78 2.79 2.83 2.86 2.84 2.84 2.79 2.93 2.97 2.82 2.74 2.65 2.39 2.56 2.61 2.65 2.68 2.77 2.69 2.59 2.54 2.37 2.22 2.20 2.34 2.41 2.63 2.89 2.90
1.02 1.11 1.25 1.37 1.42 1.52 1.59 1.71 1.79 1.87 2.03 2.30 2.52 2.63 2.72 2.80 2.97 2.99 3.00 2.99 3.00 3.05 3.06 3.10 3.04 2.89 2.93 2.92 2.57 2.51 2.53 2.60 2.59 2.75 2.83 2.39 2.00 2.21 2.17 2.25 2.26 2.19 2.35
1.04 1.14 1.19 1.38 1.54 1.72 1.94 2.19 2.32 2.41 2.40 2.50 2.68 2.78 2.75 2.78 2.84 2.82 2.75 2.78 2.93 2.96 2.91 2.85 2.78 2.72 2.69 2.75 2.48 2.42 2.30 2.34 2.36 2.41 2.43 2.39 2.22 2.16 2.18 2.15 2.01 1.85 1.85
1.25 1.41 1.54 1.61 1.75 1.90 2.08 2.32 2.59 2.75 2.76 2.67 2.77 2.89 2.97 3.02 2.91 2.81 2.81 2.87 2.95 2.83 2.75 2.67 2.66 2.60 2.58 2.65 2.45 2.41 2.23 2.19 2.12 2.10 2.10 2.12 1.99 2.06 2.04 1.94 1.88 1.81 1.71
1.35 1.47 1.63 1.75 1.80 1.97 2.09 2.20 2.41 2.54 2.62 2.67 2.79 2.91 2.99 3.14 3.24 3.17 3.18 3.12 3.05 2.95 2.89 2.80 2.79 2.74 2.70 2.83 2.57 2.43 2.23 2.21 2.21 2.30 2.26 2.21 2.04 2.02 1.91 1.75 1.76 1.63 1.52
1.30 1.34 1.42 1.60 1.69 1.78 1.91 2.10 2.20 2.19 2.30 2.40 2.44 2.63 2.86 3.09 3.24 3.32 3.30 3.29 3.20 3.09 2.88 2.71 2.63 2.60 2.63 2.77 2.57 2.41 2.19 2.18 2.29 2.37 2.41 2.35 2.25 1.94 1.79 1.65 1.57 1.56 1.70
1.28 1.28 1.37 1.50 1.60 1.77 2.04 2.25 2.26 2.23 2.27 2.37 2.50 2.66 2.88 2.98 3.01 3.12 3.16 3.28 3.23 3.14 3.01 2.77 2.56 2.46 2.32 2.27 2.28 2.13 2.01 2.06 2.17 2.26 2.38 2.42 2.33 2.05 1.91 1.75 1.62 1.67 1.65
1.37 1.32 1.36 1.49 1.72 1.97 2.23 2.47 2.47 2.51 2.56 2.61 2.69 2.77 2.86 2.97 3.04 3.10 3.11 3.10 3.04 2.88 2.76 2.62 2.50 2.42 2.35 2.27 2.09 1.85 1.78 1.82 1.85 1.98 2.34 2.46 2.32 2.09 1.83 1.74 1.73 1.65 1.52
1.43 1.39 1.41 1.52 1.73 1.86 1.99 2.25 2.41 2.46 2.64 2.65 2.57 2.56 2.56 2.64 2.72 2.84 2.87 2.82 2.74 2.66 2.58 2.49 2.40 2.30 2.25 2.15 2.04 1.90 1.76 1.72 1.71 1.71 1.94 2.06 2.03 1.84 1.69 1.61 1.53 1.43 1.44
1.53 1.53 1.58 1.66 1.70 1.74 1.81 1.95 2.15 2.31 2.50 2.63 2.65 2.68 2.67 2.70 2.75 2.82 2.91 2.79 2.63 2.60 2.47 2.32 2.35 2.32 2.16 2.12 2.10 1.94 1.78 1.71 1.78 1.78 1.78 1.85 1.94 1.92 1.85 1.83 1.75 1.66 1.59
1.62 1.68 1.74 1.78 1.78 1.76 1.86 1.97 2.14 2.38 2.65 2.67 2.60 2.63 2.70 2.79 2.88 2.92 2.96 3.01 2.74 2.64 2.49 2.36 2.28 2.20 2.07 1.96 1.84 1.78 1.71 1.62 1.61 1.53 1.53 1.73 1.91 2.03 2.04 2.09 2.05 1.96 1.87